Mineral Wells, TX

6:31 PM CST on December 08, 2016 (GMT -0600)
Mineral Wells

Weather History for KMWL - August, 2013

Change the Weather History Date:

Sunday, August 18, 2013

  Actual Average Record
Temperature  
Mean Temperature 78 °F -  
Max Temperature 89 °F 93 °F 105 °F (2011)
Min Temperature 66 °F 71 °F 63 °F (2004)
Cooling Degree Days 12    
Growing Degree Days 28 (Base 50)    
Moisture  
Dew Point 61 °F    
Average Humidity 59    
Maximum Humidity 87    
Minimum Humidity 36    
Precipitation  
Precipitation 0.00 in - - ()
Sea Level Pressure  
Sea Level Pressure 30.01 in    
Wind  
Wind Speed 4 mph (ESE)    
Max Wind Speed 13 mph    
Max Gust Speed 16 mph    
Visibility 10 miles    
Events      
Averages and records for this station are not official NWS values.
T = Trace of Precipitation, MM = Missing Value Source: NWS Daily Summary

Daily Weather History Graph

Daily Weather History Graph

Search for Another Location

Airport or City:

Trip Planner

Search our weather history database for the weather conditions in past years. The results will help you decide how hot, cold, wet, or windy it might be!

Date:

Astronomy

Aug. 18, 2013 Rise Set
Actual Time 6:57 AM CDT 8:13 PM CDT
Civil Twilight 6:32 AM CDT 8:39 PM CDT
Nautical Twilight 6:01 AM CDT 9:10 PM CDT
Astronomical Twilight 5:29 AM CDT 9:41 PM CDT
Moon 6:17 PM CDT (8/18) 4:13 AM CDT (8/18)
Length of Visible Light 14h 07m
Length of Day
13h 15m
Waxing Gibbous, 92% of the Moon is Illuminated
Aug 18
Waxing Gibbous
Aug 20
Full
Aug 28
Last Quarter
Sep 5
New
Sep 12
First Quarter

Hourly Weather History & Observations

Time (CDT) Temp. Heat Index Dew Point Humidity Pressure Visibility Wind Dir Wind Speed Gust Speed Precip Events Conditions
12:53 AM 71.1 °F - 63.0 °F 75% 30.01 in 10.0 mi Calm Calm - N/A   Partly Cloudy
1:53 AM 70.0 °F - 62.1 °F 76% 30.01 in 10.0 mi Calm Calm - N/A   Clear
2:53 AM 71.1 °F - 61.0 °F 70% 30.00 in 10.0 mi Calm Calm - N/A   Partly Cloudy
3:53 AM 69.1 °F - 62.1 °F 78% 29.99 in 10.0 mi Calm Calm - N/A   Partly Cloudy
4:53 AM 68.0 °F - 61.0 °F 78% 29.99 in 10.0 mi East 5.8 mph - N/A   Clear
5:53 AM 66.9 °F - 61.0 °F 81% 29.99 in 10.0 mi SE 5.8 mph - N/A   Clear
6:53 AM 66.0 °F - 62.1 °F 87% 30.01 in 10.0 mi Calm Calm - N/A   Clear
7:53 AM 69.1 °F - 64.0 °F 84% 30.03 in 10.0 mi Calm Calm - N/A   Clear
8:53 AM 72.0 °F - 61.0 °F 68% 30.06 in 10.0 mi SE 5.8 mph - N/A   Clear
9:53 AM 75.9 °F - 62.1 °F 62% 30.07 in 10.0 mi SE 8.1 mph - N/A   Clear
10:53 AM 79.0 °F - 61.0 °F 54% 30.08 in 10.0 mi SSE 8.1 mph - N/A   Scattered Clouds
11:53 AM 82.0 °F 82.7 °F 61.0 °F 49% 30.06 in 10.0 mi SE 6.9 mph - N/A   Partly Cloudy
12:53 PM 84.0 °F 84.0 °F 60.1 °F 44% 30.04 in 10.0 mi South 4.6 mph - N/A   Partly Cloudy
1:53 PM 86.0 °F 86.1 °F 61.0 °F 43% 30.02 in 10.0 mi Variable 4.6 mph - N/A   Partly Cloudy
2:53 PM 88.0 °F 87.6 °F 60.1 °F 39% 30.01 in 10.0 mi Variable 3.5 mph - N/A   Clear
3:53 PM 89.1 °F 88.8 °F 60.1 °F 38% 29.99 in 10.0 mi ENE 11.5 mph - N/A   Clear
4:53 PM 88.0 °F 86.9 °F 57.9 °F 36% 29.98 in 10.0 mi SE 3.5 mph - N/A   Clear
5:53 PM 88.0 °F 87.6 °F 60.1 °F 39% 29.97 in 10.0 mi East 12.7 mph 16.1 mph N/A   Clear
6:53 PM 87.1 °F 86.7 °F 60.1 °F 40% 29.96 in 10.0 mi East 11.5 mph - N/A   Clear
7:53 PM 84.0 °F 84.4 °F 61.0 °F 46% 29.96 in 10.0 mi East 8.1 mph - N/A   Clear
8:53 PM 80.1 °F 81.1 °F 61.0 °F 52% 29.97 in 10.0 mi East 5.8 mph - N/A   Clear
9:53 PM 78.1 °F - 61.0 °F 56% 29.98 in 10.0 mi ESE 5.8 mph - N/A   Clear
10:53 PM 75.0 °F - 62.1 °F 64% 29.99 in 10.0 mi SE 4.6 mph - N/A   Clear
11:53 PM 73.9 °F - 62.1 °F 66% 29.99 in 10.0 mi ESE 5.8 mph - N/A   Clear